Starlink 11492

operational
NORAD ID: 62224 Int'l Des: 2024-231 Owner: SPXS Country: US Constellation: starlink
LEOCIRCULAR

Über Starlink 11492

Beschreibung wird geladen...

Live-Position

3D-Globus wird geladen...

Nächste Überflüge

Höhenverlauf

Altitude vs Time

uPlot chart will show altitude changes over time

Zweizeiliger Elementsatz

1 62224U 24231G 26036.69827220 .00472941 00000-0 36572-2 0 9993
2 62224 53.1569 259.2199 0001092 108.3624 251.7513 15.69927659 68388
Epoch: 5. Feb. 2026 • Age: 7 hours

Aktueller Status

Höhe 370.8 km
Geschwindigkeit 7.69 km/s
Subsatellitenpunkt -36.89°S, 84.66°E
Startdatum 5. Dez. 2024
Alter 1.1 years
Typ internet

Technische Details

Klassifizierung Payload
Masse 960.00 kg
Trockenmasse 910.00 kg
Gesamtmasse 960.00 kg
Länge 0.30 m
Durchmesser 4.10 m
Spannweite 29.00 m
Form Box + pan
Hersteller SPXS
Bus-Typ Starlink V2MD
Phasenstatus In Orbit
Besitzer/Staat SPXS/US

Große Konstellationen

Loading constellations...